PE1RXF-13 Weather Reports


Display with metric or nautical units.
time (UTC)temp
F
wind
direction
speed
MPH
gust
MPH
rain 1hr
in
rain 24hr
in
rain mn
in
humidity
%
barometer
mb
20260502161414 73 180 4.0 15.0 0.00 0.00 0.00 50 1014.2
20260502151414 75 270 4.0 7.0 0.00 0.00 0.00 45 1014.7
20260502121415 81 180 23.0 35.0 0.00 0.00 0.00 30 1015.8
20260502114414 80 225 14.0 31.0 0.00 0.00 0.00 22 1016.0
20260502111414 80 180 12.0 27.0 0.00 0.00 0.00 21 1016.2
20260502104414 77 225 21.0 31.0 0.00 0.00 0.00 22 1016.4
20260502101414 80 225 16.0 26.0 0.00 0.00 0.00 21 1016.7
20260502091414 77 225 14.0 25.0 0.00 0.00 0.00 26 1017.0
20260502071415 67 180 10.0 18.0 0.00 0.00 0.00 36 1017.7
20260502064415 64 180 8.0 11.0 0.00 0.00 0.00 41 1017.8
20260502061416 62 202 8.0 15.0 0.00 0.00 0.00 46 1017.9
20260502054416 54 180 5.0 11.0 0.00 0.00 0.00 63 1018.1
20260502044417 48 180 2.0 4.0 0.00 0.00 0.00 76 1018.1
20260502041416 48 180 1.0 2.0 0.00 0.00 0.00 75 1018.2
20260502034417 49 180 1.0 4.0 0.00 0.00 0.00 70 1018.4
20260502031416 49 180 2.0 4.0 0.00 0.00 0.00 70 1018.5
20260502024416 51 180 1.0 5.0 0.00 0.00 0.00 66 1018.7
20260502021416 51 180 2.0 4.0 0.00 0.00 0.00 66 1019.0
20260502001416 54 135 0.0 4.0 0.00 0.00 0.00 61 1020.2
20260501234416 53 157 1.0 5.0 0.00 0.00 0.00 64 1020.3
20260501231417 55 180 0.0 2.0 0.00 0.00 0.00 57 1020.5
20260501224415 57 180 0.0 4.0 0.00 0.00 0.00 53 1020.6
20260501221415 58 180 1.0 6.0 0.00 0.00 0.00 51 1020.6
20260501214416 58 180 0.0 2.0 0.00 0.00 0.00 50 1020.8
20260501211416 60 90 1.0 4.0 0.00 0.00 0.00 45 1020.8
20260501204415 61 90 1.0 4.0 0.00 0.00 0.00 44 1020.9
20260501201415 63 90 1.0 4.0 0.00 0.00 0.00 42 1021.1
20260501194415 65 90 1.0 6.0 0.00 0.00 0.00 36 1021.2
20260501181415 71 135 5.0 16.0 0.00 0.00 0.00 28 1021.2
20260501174415 74 180 5.0 12.0 0.00 0.00 0.00 25 1021.0
20260501171416 77 180 5.0 10.0 0.00 0.00 0.00 24 1021.2
20260501164415 77 112 14.0 38.0 0.00 0.00 0.00 23 1021.5